Location: ??????
(36.0418°N, 43.6351°E)
Time: 22:30:42
(UTC+00:00)

USA 234 - Pass Details

Date: 07 March 2021
Orbit: 1102 x 1105 km, 123.0° (Epoch: 18 April)

Event Time Altitude Azimuth Distance (km) Brightness Sun altitude
Rises 00:08:41 0° 117° (ESE) 3,910 6.5 -40.0°
Reaches altitude 10° 00:11:13 10° 113° (ESE) 2,955 5.9 -39.5°
Enters shadow 00:16:30 48° 67° (ENE) 1,406 4.0 -38.6°
